Regional Weather Roundup
Issued by NWS Bismarck, ND

Home | Current Version | Previous Version | Text Only | Print | Product List | Glossary On
Versions: 1 2 3 4 5 6 7 8 9 10 11 12 13 14 15 16 17 18 19 20 21 22 23 24 25 26 27 28 29 30 31 32 33 34 35 36 37 38 39 40 41 42 43 44 45 46 47 48 49 50
000
ASUS43 KBIS 250820
RWRBIS

NWR BROADCAST TEXT
NATIONAL WEATHER SERVICE BISMARCK ND
300 AM CDT MON MAY 25 2015

NOTE: "FAIR" INDICATES FEW OR NO CLOUDS BELOW 12,000 FEET WITH NO
SIGNIFICANT WEATHER AND/OR OBSTRUCTIONS TO VISIBILITY.


CITY           SKY/WX    TMP DP  RH WIND       PRES   REMARKS
WILLISTON      MOCLDY    49  43  80 NE3       29.89S
MINOT          CLOUDY    55  48  77 CALM      29.87F
MINOT AFB      CLOUDY    51  51  99 NW5       29.86F
BISMARCK       LGT RAIN  56  54  93 NE6       29.86F
DICKINSON      CLOUDY    55  49  80 E7        29.86S
GARRISON         N/A     57  52  83 CALM      29.87F
HETTINGER ARPT CLOUDY    53  51  93 NE5       29.86S
JAMESTOWN      LGT RAIN  57  55  93 NW5       29.84F FOG
BEACH          CLOUDY    46  46 100 NW6       29.90F
CARRINGTON     CLOUDY    55  55 100 NW7       29.86F
CROSBY         FAIR      50  48  93 NW3       29.90F
HARVEY         FAIR      57  55  94 SW7       29.86F
HAZEN          CLOUDY    55  50  82 CALM      29.88F
LINTON         PTSUNNY   55  55 100 NE5       29.83F FOG
MANDAN         LGT RAIN  54  54 100 NE5       29.87F
OAKES          LGT RAIN  55  55 100 N10       29.81S
STANLEY        FAIR      50  50 100 CALM      29.90S
TIOGA          FAIR      43  43 100 CALM      29.92F
WATFORD CITY   FAIR      45  43  93 CALM      29.87F
$$

CITY           SKY/WX    TMP DP  RH WIND       PRES   REMARKS
GRAND FORKS    CLOUDY    57  52  83 CALM      29.83S
GRAND FORKS AF CLOUDY    55  51  87 NW5       29.83F
DEVILS LAKE    CLOUDY    55  50  82 N7        29.84F
FARGO          RAIN      59  56  89 N7        29.82F FOG
CANDO          FAIR      55  48  76 NE6       29.87S
CAVALIER       FAIR      54  48  82 NW3       29.84F
GRAFTON        FAIR      57  50  77 CALM      29.83F
LANGDON        FAIR      55  45  67 N5        29.87S
ROLLA          CLOUDY    50  48  93 N6        29.88F
WALHALLA       FAIR      50  50 100 CALM      29.85F
$$

CITY           SKY/WX    TMP DP  RH WIND       PRES   REMARKS
ABERDEEN       RAIN      57  56  96 NE9       29.78F FOG
MOBRIDGE       CLOUDY    57  57 100 NE7       29.79S
BUFFALO          N/A     53  51  93 N7        29.80F
RAPID CITY     CLOUDY    52  51  97 N7        29.84S
GLASGOW        PTCLDY    51  42  71 CALM      29.89F
SIDNEY         MOCLDY    48  45  87 CALM      29.89S
WOLF POINT     PTCLDY    47  43  86 SW5       29.89F
GLENDIVE       PTCLDY    46  45  93 NW3       29.90S
MILES CITY     CLOUDY    52  51  97 NW6       29.90S
BAKER          CLOUDY    52  51  97 NW3       29.90F
$$

CITY           SKY/WX    TMP DP  RH WIND       PRES   REMARKS
BILLINGS       CLOUDY    52  46  80 NW8       29.93S
GREAT FALLS    CLEAR     44  41  89 SW5       29.93F
REGINA         PTCLDY    52  41  66 SE7       29.89F
ESTEVAN        PTCLDY    52  46  82 SE2       29.90F
$$




USA.gov is the U.S. government's official web portal to all federal, state and local government web resources and services.